Regional Weather Roundup
Issued by NWS

Home | Current Version | Previous Version | Text Only | Print | Product List | Glossary Off
Versions: 1 2 3 4 5 6 7 8 9 10 11 12 13 14 15 16 17 18 19 20 21 22 23 24 25 26 27 28 29 30 31 32 33 34 35 36 37 38 39 40 41 42 43 44 45 46 47 48 49 50

000
ASUS43 KOAX 270110
RWRNE

WEATHER ROUNDUP FOR NEBRASKA
NATIONAL WEATHER SERVICE OMAHA NE
800 PM CDT TUE MAY 26 2015

NOTES: SATELLITE DATA IS BEING USED TO AUGMENT CLOUD COVER ABOVE
       12000 FEET.
       "FAIR" INDICATES FEW OR NO CLOUDS BELOW 12,000 FEET WITH NO
       SIGNIFICANT WEATHER AND/OR OBSTRUCTIONS TO VISIBILITY.

  * THESE STATIONS DO NOT REPORT WEATHER SUCH AS RAIN...SNOW OR FOG.

NEZ001>004-019>022-054>056-270200-
NEBRASKA PANHANDLE

CITY           SKY/WX    TMP DP  RH WIND       PRES   REMARKS
SCOTTSBLUFF    MOSUNNY   67  50  54 SE12      29.98R
ALLIANCE       PTSUNNY   62  51  67 E7        29.98S
CHADRON        MOSUNNY   65  51  60 SE9       29.95S
KIMBALL          N/A    N/A N/A N/A MISG        N/A
SIDNEY         MOSUNNY   62  51  67 SE7       30.03R
$$

NEZ057>060-069>072-079>082-270200-
SOUTHWEST NEBRASKA

CITY           SKY/WX    TMP DP  RH WIND       PRES   REMARKS
NORTH PLATTE   SUNNY     68  48  48 E6        29.98R
IMPERIAL       SUNNY     68  49  50 E5        30.00R
LEXINGTON      CLEAR     66  51  58 NE3       29.98R
MCCOOK         CLEAR     70  47  43 E6        29.98R
OGALLALA       SUNNY     68  47  47 E3        30.00R
$$

NEZ005>010-023>029-035>040-094-270200-
NORTH CENTRAL NEBRASKA

CITY           SKY/WX    TMP DP  RH WIND       PRES   REMARKS
VALENTINE      SUNNY     72  44  36 CALM      29.94R
AINSWORTH      SUNNY     70  48  45 NW5       29.94S
BROKEN BOW     CLEAR     69  48  47 CALM      29.96R
O`NEILL        PTCLDY    66  51  58 W5        29.92R
ORD            CLOUDY    66  52  60 W8        29.93S
THEDFORD       SUNNY     69  47  45 CALM      29.97S
$$

NEZ041-046>049-061>064-073>077-083>087-270200-
SOUTH CENTRAL NEBRASKA

CITY           SKY/WX    TMP DP  RH WIND       PRES   REMARKS
GRAND ISLAND   PTCLDY    67  49  52 NW10      29.93S
AURORA         PTCLDY    69  50  51 NW8       29.92S
HASTINGS       MOCLDY    68  49  50 N10       29.95R
HEBRON         PTCLDY    68  50  52 NW5       29.93R
HOLDREGE       PTCLDY    68  46  44 N6        29.97S
KEARNEY *      PTCLDY    68  46  45 N7        29.97R
YORK           PTCLDY    66  50  55 N8        29.92R
$$

NEZ011>018-030>034-042>045-270200-
NORTHEAST NEBRASKA

CITY           SKY/WX    TMP DP  RH WIND       PRES   REMARKS
NORFOLK        PTCLDY    69  54  58 NW5       29.88R
ALBION         CLEAR     66  52  59 NW5       29.91R
BLAIR          PTCLDY    67  55  65 W7        29.86R
COLUMBUS *       N/A    N/A N/A N/A MISG        N/A
FREMONT        PTCLDY    68  55  63 W7        29.86S
TEKAMAH        MOCLDY    69  57  65 NE8       29.84R
WAYNE          PTCLDY    67  53  60 N7        29.87R
$$

NEZ050>053-065>068-078-088>093-270200-
SOUTHEAST NEBRASKA

CITY           SKY/WX    TMP DP  RH WIND       PRES   REMARKS
LINCOLN        PTCLDY    70  53  54 W6        29.89R
OMAHA EPPLEY   MOCLDY    68  56  65 W7        29.85S
BEATRICE       PTCLDY    67  55  64 NW6       29.90R
FALLS CITY     MOCLDY    71  59  65 NW8       29.86S
NEBRASKA CITY  CLOUDY    66  56  68 W8        29.88R
PLATTSMOUTH    CLEAR     67  55  65 W10       29.87R
$$

NEZ044-045-051>053-067-270200-
OMAHA AREA

CITY           SKY/WX    TMP DP  RH WIND       PRES   REMARKS
OMAHA EPPLEY   MOCLDY    68  56  65 W7        29.85S
BLAIR          PTCLDY    67  55  65 W7        29.86R
FREMONT        PTCLDY    68  55  63 W7        29.86S
MILLARD        PTCLDY    68  56  65 W7        29.86S
OFFUTT AFB     PTCLDY    68  56  66 W7        29.85S
PLATTSMOUTH    CLEAR     67  55  65 W10       29.87R
WAHOO          FAIR      68  56  64 W6        29.87S
$$



USA.gov is the U.S. government's official web portal to all federal, state and local government web resources and services.